Flag for Canada Weather past 2 weeks in Glace Bay, Nova Scotia, Canada

Now
28 °F

Scattered clouds.


Feels Like: 19 °F
Forecast: 13 / 26 °F
Wind: 10 mph from Southwest

Location: Sydney

Current Time: Mar 1, 2015 at 4:16:15 PM

Latest Report: Mar 1, 2015 at 3:00 PM


Visibility: 15 mi

Pressure: 30.50 "Hg

Humidity: 37%

Dew point: 5 °F

Location of Glace BayLocation

Historic Weather in Glace Bay — Graph

°F

Glace Bay temperature yesterday

Maximum temperature yesterday: 21 °F (at 2:00 PM)
Minimum temperature yesterday: 0 °F (at 7:00 AM)
Average temperature yesterday: 11 °F

Past Weeks' High & Low Weather Summary

 TemperatureHumidityPressure
High41 °F (Feb 22, 1:00 PM)100% (Feb 15, 1:00 PM)30.60 "Hg (Feb 15, 1:00 PM)
Low-6 °F (Feb 14, 11:00 PM)32% (Feb 21, 5:00 PM)28.45 "Hg (Feb 16, 3:00 AM)
Average19 °F75%29.85 "Hg
* Reported Feb 14 3:00 PM — Mar 1 3:00 PM, Glace Bay, Weather by CustomWeather, © 2015

Note: Actual official high and low records may vary slightly from our data, if they occured in-between our weather recording intervals... More about our weather records

Advertising

Glace Bay weather history for previous 24 hours

 ConditionsComfort  
Time TempWeatherWind HumidityBarometerVisibility
3:00 PM
Sun, Mar 1
28 °FScattered clouds.10 mph37%30.50 "Hg15 mi
2:00 PM28 °FScattered clouds.7 mph37%30.52 "Hg15 mi
1:00 PM28 °FScattered clouds.7 mph37%30.53 "Hg15 mi
12:00 PM27 °FScattered clouds.9 mph46%30.56 "Hg15 mi
11:00 AM25 °FPassing clouds.10 mph46%30.58 "Hg15 mi
10:00 AM21 °FPassing clouds.8 mph58%30.59 "Hg15 mi
9:00 AM18 °FPassing clouds.10 mph68%30.60 "Hg15 mi
8:00 AM12 °FPassing clouds.12 mph79%30.60 "Hg15 mi
7:00 AM7 °FSunny.8 mph85%30.59 "Hg15 mi
6:00 AM7 °FClear.10 mph85%30.58 "Hg15 mi
5:00 AM9 °FClear.9 mph78%30.58 "Hg15 mi
4:00 AM7 °FClear.8 mph85%30.57 "Hg15 mi
3:00 AM10 °FClear.7 mph79%30.56 "Hg15 mi
2:00 AM9 °FClear.7 mph85%30.57 "Hg15 mi
1:00 AM9 °FPassing clouds.10 mph78%30.56 "Hg15 mi
12:00 AM10 °FPassing clouds.7 mph67%30.56 "Hg15 mi
11:00 PM
Sat, Feb 28
10 °FPassing clouds.8 mph67%30.57 "Hg15 mi
10:00 PM9 °FPassing clouds.5 mph66%30.57 "Hg15 mi
9:00 PM14 °FPassing clouds.5 mph52%30.56 "Hg15 mi
8:00 PM14 °FPassing clouds.5 mph52%30.55 "Hg15 mi
7:00 PM18 °FPassing clouds.8 mph45%30.55 "Hg15 mi
6:00 PM18 °FClear.8 mph49%30.53 "Hg15 mi
5:00 PM21 °FSunny.15 mph38%30.52 "Hg15 mi
4:00 PM21 °FSunny.10 mph42%30.51 "Hg15 mi
Weather by CustomWeather, © 2015

See weather overviewHow to use our weather pages